GW1435 Weather Reports


time (UTC)temp
F
wind
direction
speed
knots
gust
knots
rain 1hr
in
rain 24hr
in
rain mn
in
humidity
%
barometer
mb
20260505101050 59 0 0.0 0.0 0.00 0.00 0.00 82 1006.9
20260505100547 59 0 0.0 0.0 0.00 0.00 0.00 82 1006.9
20260505100051 59 0 0.0 0.0 0.00 0.00 0.00 82 1006.8
20260505095547 59 0 0.0 0.0 0.00 0.00 0.00 82 1006.9
20260505095046 59 0 0.0 0.0 0.00 0.00 0.00 83 1006.9
20260505094559 59 0 0.0 0.0 0.00 0.00 0.00 83 1006.9
20260505094043 59 0 0.0 0.0 0.00 0.00 0.00 83 1006.8
20260505093543 59 0 0.0 0.0 0.00 0.00 0.00 83 1006.7
20260505093102 59 0 0.0 0.0 0.00 0.00 0.00 84 1006.7
20260505092543 59 0 0.0 0.0 0.00 0.00 0.00 83 1006.7
20260505092045 59 0 0.0 0.0 0.00 0.00 0.00 83 1006.5
20260505091556 59 0 0.0 0.0 0.00 0.00 0.00 83 1006.5
20260505091043 59 0 0.0 0.0 0.00 0.00 0.00 83 1006.7
20260505090546 59 0 0.0 0.0 0.00 0.00 0.00 83 1006.9
20260505090053 59 0 0.0 0.0 0.00 0.00 0.00 82 1006.9
20260505085544 59 0 0.0 0.0 0.00 0.00 0.00 82 1007.0
20260505085046 59 0 0.0 0.0 0.00 0.00 0.00 82 1006.9
20260505084555 59 0 0.0 0.0 0.00 0.00 0.00 81 1007.0
20260505084043 59 0 0.0 0.0 0.00 0.00 0.00 81 1007.0
20260505083547 60 0 0.0 0.0 0.00 0.00 0.00 81 1006.9
20260505083058 60 0 0.0 0.0 0.00 0.00 0.00 80 1006.9
20260505082545 60 0 0.0 0.0 0.00 0.00 0.00 80 1006.9
20260505082045 60 0 0.0 0.0 0.00 0.00 0.00 80 1006.9
20260505081623 60 0 0.0 0.0 0.00 0.00 0.00 80 1006.9
20260505081045 60 0 0.0 0.0 0.00 0.00 0.00 79 1006.8
20260505080544 60 0 0.0 0.0 0.00 0.00 0.00 79 1006.9
20260505080104 61 0 0.0 0.0 0.00 0.00 0.00 79 1007.0
20260505075551 61 0 0.0 0.0 0.00 0.00 0.00 78 1007.0
20260505075044 61 0 0.0 0.0 0.00 0.00 0.00 78 1007.0
20260505074555 61 0 0.0 0.0 0.00 0.00 0.00 77 1007.0
20260505074043 61 0 0.0 1.7 0.00 0.00 0.00 77 1007.0
20260505073547 61 0 0.0 1.7 0.00 0.00 0.00 77 1006.9
20260505073055 61 0 0.0 4.3 0.00 0.00 0.00 77 1007.0
20260505072543 61 0 0.0 4.3 0.00 0.00 0.00 77 1007.0
20260505072046 61 0 0.0 7.8 0.00 0.00 0.00 77 1006.9
20260505071600 61 0 0.0 7.8 0.00 0.00 0.00 77 1006.9
20260505071045 61 0 0.0 7.8 0.00 0.00 0.00 77 1006.8
20260505070547 61 223 0.0 3.5 0.00 0.00 0.00 77 1006.8
20260505070105 61 219 0.0 4.3 0.00 0.00 0.00 77 1006.8
20260505065544 61 0 0.0 7.0 0.00 0.00 0.00 77 1006.5
20260505065044 61 0 0.0 7.0 0.00 0.00 0.00 77 1006.5
20260505064559 61 215 0.9 7.8 0.00 0.00 0.00 76 1006.5
20260505064043 61 224 0.9 7.8 0.00 0.00 0.00 77 1006.4
20260505063543 61 179 0.0 5.2 0.00 0.00 0.00 77 1006.8
20260505063050 61 241 0.0 5.2 0.00 0.00 0.00 76 1006.6
20260505062543 61 224 0.9 5.2 0.00 0.00 0.00 76 1006.4
20260505062046 61 0 1.7 5.2 0.00 0.00 0.00 77 1006.3
20260505061600 61 0 0.0 7.0 0.00 0.00 0.00 76 1006.6
20260505061047 61 0 1.7 7.8 0.00 0.00 0.00 77 1006.8
20260505060547 61 192 1.7 7.8 0.00 0.00 0.00 76 1007.1
20260505060058 61 0 0.9 6.1 0.00 0.00 0.00 76 1007.2
20260505055544 61 0 0.9 5.2 0.00 0.00 0.00 76 1007.3
20260505055044 61 217 0.0 5.2 0.00 0.00 0.00 76 1007.4
20260505054559 61 0 0.0 4.3 0.00 0.00 0.00 76 1007.3
20260505054044 62 221 0.0 4.3 0.00 0.00 0.00 75 1007.4
20260505053545 62 200 0.0 4.3 0.00 0.00 0.00 75 1007.5
20260505053103 62 0 0.9 6.1 0.00 0.00 0.00 75 1007.6
20260505052544 62 0 0.0 6.1 0.00 0.00 0.00 75 1007.6
20260505052046 62 0 0.0 2.6 0.00 0.00 0.00 74 1007.8
20260505051553 62 0 0.0 1.7 0.00 0.00 0.00 74 1007.9
20260505051046 62 0 0.0 4.3 0.00 0.00 0.00 74 1008.0
20260505050543 62 0 0.0 4.3 0.00 0.00 0.00 73 1007.9
20260505041559 64 0 0.0 4.3 0.00 0.00 0.00 69 1008.3
20260505041046 65 207 0.0 5.2 0.00 0.00 0.00 68 1008.3
20260505040544 65 0 0.0 5.2 0.00 0.00 0.00 68 1008.3
20260505040106 65 211 0.9 7.0 0.00 0.00 0.00 68 1008.3
20260505035545 65 184 0.9 7.0 0.00 0.00 0.00 68 1008.3
20260505035043 65 0 0.9 7.8 0.00 0.00 0.00 67 1008.4
20260505034555 65 0 0.9 7.8 0.00 0.00 0.00 67 1008.4
20260505034043 66 0 0.0 7.0 0.00 0.00 0.00 67 1008.4
20260505033544 66 175 0.9 6.1 0.00 0.00 0.00 66 1008.5
20260505033049 66 192 0.9 7.0 0.00 0.00 0.00 66 1008.5
20260505032546 66 0 0.9 7.8 0.00 0.00 0.00 66 1008.6
20260505032043 66 0 0.9 7.8 0.00 0.00 0.00 65 1008.5
20260505031552 66 189 2.6 7.8 0.00 0.00 0.00 65 1008.3
20260505031044 66 0 0.9 9.6 0.00 0.00 0.00 65 1008.3
20260505030544 66 223 1.7 9.6 0.00 0.00 0.00 65 1008.3
20260505030100 66 176 0.0 8.7 0.00 0.00 0.00 64 1008.2
20260505025546 66 0 2.6 8.7 0.00 0.00 0.00 64 1008.2
20260505025044 67 179 0.0 6.1 0.00 0.00 0.00 64 1008.2
20260505024551 67 210 0.9 6.1 0.00 0.00 0.00 63 1008.1
20260505024045 67 0 1.7 6.1 0.00 0.00 0.00 63 1008.0
20260505023544 67 212 1.7 5.2 0.00 0.00 0.00 63 1007.9
20260505023057 67 180 0.9 4.3 0.00 0.00 0.00 62 1007.9
20260505022543 67 214 0.9 7.8 0.00 0.00 0.00 62 1007.9
20260505022044 68 0 0.0 7.8 0.00 0.00 0.00 62 1007.8
20260505021557 68 244 0.0 5.2 0.00 0.00 0.00 61 1007.6
20260505021044 68 225 0.0 6.1 0.00 0.00 0.00 61 1007.5
20260505020544 68 0 0.0 6.1 0.00 0.00 0.00 60 1007.4
20260505020056 69 213 1.7 6.1 0.00 0.00 0.00 60 1007.3
20260505015544 69 0 0.0 5.2 0.00 0.00 0.00 59 1007.1
20260505015044 69 0 0.0 6.1 0.00 0.00 0.00 59 1007.1
20260505014558 69 0 0.9 7.8 0.00 0.00 0.00 58 1007.0
20260505014045 69 227 0.9 7.8 0.00 0.00 0.00 58 1007.0
20260505013545 70 237 1.7 7.8 0.00 0.00 0.00 58 1007.1
20260505013055 70 223 0.9 6.1 0.00 0.00 0.00 57 1007.1
20260505012543 70 0 0.0 6.1 0.00 0.00 0.00 57 1007.0
20260505012046 70 235 0.0 7.8 0.00 0.00 0.00 56 1007.1
20260505011556 71 0 0.9 7.8 0.00 0.00 0.00 56 1007.0
20260505011048 71 250 0.9 7.8 0.00 0.00 0.00 56 1007.1
20260505010543 71 190 0.9 6.1 0.00 0.00 0.00 55 1007.0
20260505005544 72 0 1.7 7.8 0.00 0.00 0.00 54 1006.9
20260505005044 72 0 1.7 7.8 0.00 0.00 0.00 54 1006.9
20260505004552 72 198 0.0 9.6 0.00 0.00 0.00 53 1006.8
20260505004044 73 0 0.0 9.6 0.00 0.00 0.00 53 1006.9
20260505003547 73 179 0.0 8.7 0.00 0.00 0.00 53 1006.8
20260505003050 73 168 0.9 9.6 0.00 0.00 0.00 52 1006.8
20260505002548 74 214 1.7 9.6 0.00 0.00 0.00 51 1006.8
20260505002048 74 198 0.9 7.8 0.00 0.00 0.00 50 1006.8
20260505001554 74 178 1.7 8.7 0.00 0.00 0.00 49 1006.6
20260505001047 75 0 1.7 8.7 0.00 0.00 0.00 49 1006.6
20260505000547 75 0 0.9 11.3 0.00 0.00 0.00 49 1006.5
20260505000100 75 191 0.9 13.0 0.00 0.00 0.00 48 1006.4
20260504235548 76 221 1.7 13.0 0.00 0.00 0.00 47 1006.4
20260504235048 76 194 3.5 12.2 0.00 0.00 0.00 47 1006.4
20260504234550 76 173 1.7 12.2 0.00 0.00 0.00 48 1006.5
20260504234050 76 249 1.7 10.4 0.00 0.00 0.00 48 1006.5
20260504233548 77 219 0.9 8.7 0.00 0.00 0.00 47 1006.6
20260504233054 77 0 0.0 7.0 0.00 0.00 0.00 48 1006.5
20260504232548 77 0 1.7 7.8 0.00 0.00 0.00 48 1006.6
20260504232052 77 0 1.7 9.6 0.00 0.00 0.00 48 1006.7
20260504231551 76 225 1.7 9.6 0.00 0.00 0.00 48 1006.7
20260504231047 76 191 1.7 14.8 0.00 0.00 0.00 49 1006.7
20260504230551 76 220 3.5 14.8 0.00 0.00 0.00 48 1006.8
20260504230056 76 197 1.7 13.9 0.00 0.00 0.00 47 1006.8
20260504225548 77 200 5.2 17.4 0.00 0.00 0.00 46 1006.8
20260504225053 77 0 1.7 17.4 0.00 0.00 0.00 46 1006.8
20260504224559 77 236 5.2 17.4 0.00 0.00 0.00 46 1006.9
20260504224050 78 221 3.5 12.2 0.00 0.00 0.00 46 1006.9
20260504223544 78 207 7.0 12.2 0.00 0.00 0.00 46 1006.9
20260504223056 78 0 3.5 12.2 0.00 0.00 0.00 45 1006.9
20260504222548 78 195 4.3 12.2 0.00 0.00 0.00 45 1006.8
20260504222047 78 168 5.2 13.9 0.00 0.00 0.00 45 1006.9
20260504221554 78 169 4.3 13.9 0.00 0.00 0.00 45 1007.0
20260504221047 78 209 3.5 14.8 0.00 0.00 0.00 46 1006.9
20260504220548 78 237 5.2 14.8 0.00 0.00 0.00 45 1006.8
20260504220110 78 165 2.6 14.8 0.00 0.00 0.00 46 1006.9
20260504215548 78 188 7.0 14.8 0.00 0.00 0.00 45 1007.0
20260504215049 78 187 5.2 13.9 0.00 0.00 0.00 46 1007.0
20260504214554 79 289 4.3 12.2 0.00 0.00 0.00 44 1006.9
20260504214048 79 241 3.5 13.9 0.00 0.00 0.00 43 1007.0
20260504213548 79 194 5.2 13.9 0.00 0.00 0.00 43 1007.0
20260504213059 79 272 4.3 13.9 0.00 0.00 0.00 43 1007.0
20260504212544 79 215 1.7 13.0 0.00 0.00 0.00 45 1007.1
20260504212043 79 200 2.6 13.0 0.00 0.00 0.00 45 1007.1
20260504211556 79 259 4.3 12.2 0.00 0.00 0.00 44 1007.0
20260504211046 79 248 6.1 12.2 0.00 0.00 0.00 43 1007.2
20260504210545 79 0 3.5 14.8 0.00 0.00 0.00 44 1007.3
20260504210055 79 239 2.6 14.8 0.00 0.00 0.00 43 1007.3
20260504205544 79 221 4.3 15.6 0.00 0.00 0.00 43 1007.4
20260504205044 79 148 7.0 15.6 0.00 0.00 0.00 44 1007.4
20260504204552 80 0 3.5 14.8 0.00 0.00 0.00 44 1007.3
20260504204044 80 178 3.5 14.8 0.00 0.00 0.00 42 1007.4
20260504203545 80 165 1.7 11.3 0.00 0.00 0.00 45 1007.6
20260504203053 80 234 3.5 11.3 0.00 0.00 0.00 43 1007.6
20260504202544 79 254 3.5 13.9 0.00 0.00 0.00 44 1007.6
20260504202043 79 229 4.3 13.9 0.00 0.00 0.00 43 1007.7
20260504201551 79 237 3.5 9.6 0.00 0.00 0.00 42 1007.7
20260504201045 79 168 3.5 10.4 0.00 0.00 0.00 43 1007.9
20260504200544 79 208 4.3 15.6 0.00 0.00 0.00 44 1007.9
20260504200101 79 0 5.2 15.6 0.00 0.00 0.00 44 1008.0
20260504195542 79 291 5.2 14.8 0.00 0.00 0.00 43 1008.0
20260504195043 79 242 6.1 15.6 0.00 0.00 0.00 43 1008.0
20260504194556 78 248 5.2 15.6 0.00 0.00 0.00 44 1008.0
20260504194047 79 265 4.3 20.9 0.00 0.00 0.00 43 1008.1
20260504193544 79 167 5.2 20.9 0.00 0.00 0.00 45 1008.3
20260504193052 79 188 6.1 13.9 0.00 0.00 0.00 45 1008.2
20260504192544 78 0 5.2 13.9 0.00 0.00 0.00 45 1008.3
20260504192044 78 231 4.3 13.0 0.00 0.00 0.00 45 1008.3
20260504191557 78 172 3.5 13.9 0.00 0.00 0.00 45 1008.4
20260504191044 78 211 4.3 13.9 0.00 0.00 0.00 47 1008.6
20260504190544 78 292 6.1 16.5 0.00 0.00 0.00 44 1008.5
20260504190108 77 161 5.2 16.5 0.00 0.00 0.00 46 1008.5
20260504185544 77 220 6.1 13.0 0.00 0.00 0.00 44 1008.6
20260504185043 77 197 7.8 14.8 0.00 0.00 0.00 47 1008.5
20260504184611 77 198 5.2 14.8 0.00 0.00 0.00 46 1008.5
20260504184045 77 186 7.0 14.8 0.00 0.00 0.00 46 1008.6
20260504183545 77 205 5.2 14.8 0.00 0.00 0.00 47 1008.7
20260504183059 77 238 6.1 13.9 0.00 0.00 0.00 46 1008.6
20260504182545 77 186 5.2 13.9 0.00 0.00 0.00 47 1008.7
20260504182044 77 213 6.1 14.8 0.00 0.00 0.00 45 1008.7
20260504181556 77 244 7.0 14.8 0.00 0.00 0.00 46 1008.8
20260504181044 76 237 2.6 17.4 0.00 0.00 0.00 47 1008.9
20260504180545 76 264 5.2 18.2 0.00 0.00 0.00 48 1008.9
20260504180053 76 193 3.5 18.2 0.00 0.00 0.00 48 1008.9
20260504175544 76 234 5.2 15.6 0.00 0.00 0.00 46 1009.0
20260504175045 76 205 5.2 16.5 0.00 0.00 0.00 48 1009.0
20260504174600 76 248 7.0 16.5 0.00 0.00 0.00 47 1009.0
20260504174044 76 200 3.5 15.6 0.00 0.00 0.00 48 1009.0
20260504173545 76 187 5.2 15.6 0.00 0.00 0.00 49 1009.0
20260504173057 75 175 6.1 16.5 0.00 0.00 0.00 49 1009.0
20260504172543 75 242 4.3 16.5 0.00 0.00 0.00 48 1009.0
20260504172044 75 229 4.3 16.5 0.00 0.00 0.00 48 1009.1
20260504171556 75 248 5.2 16.5 0.00 0.00 0.00 49 1009.2
20260504171044 75 188 6.1 14.8 0.00 0.00 0.00 49 1009.1
20260504170545 75 175 4.3 13.9 0.00 0.00 0.00 48 1009.1
20260504151048 70 182 3.5 18.2 0.00 0.00 0.00 53 1010.1
20260504150544 70 224 7.0 18.2 0.00 0.00 0.00 52 1010.2
20260504141044 67 200 6.1 15.6 0.00 0.00 0.00 56 1011.0
20260504140545 67 248 5.2 14.8 0.00 0.00 0.00 56 1011.0
20260504130544 62 0 1.7 8.7 0.00 0.00 0.00 69 1010.9
20260504110545 58 246 0.0 4.3 0.00 0.00 0.00 73 1010.6